DateTimeUTC,F1_A11,F1_S11,BsB_S11,BsG_S11,BsR_S11,BbsB_S11,BbsG_S11,BbsR_S11,BaB_A11,BaG_A11,BaR_A11,Tu_S11,T_S11,Uu_S11,U_S11,P_S11,T1_A11
2021-05-30T23:00:00Z,00000200,20000000,,,,,,,0000.19,0000.07,-000.17,18.2,25.2,04.6,03.0,0658.2,31.1
2021-05-30T23:01:00Z,00000200,20000000,,,,,,,-000.40,-000.23,-000.18,18.2,25.3,04.6,03.0,0658.2,31.0
2021-05-30T23:02:00Z,00000200,20000000,,,,,,,0000.07,-000.32,0000.13,18.2,25.3,04.6,03.0,0658.2,31.0
2021-05-30T23:03:00Z,00000200,60000000,,,,,,,0000.18,0000.45,-000.29,18.2,25.3,04.6,03.0,0658.2,31.1
2021-05-30T23:04:00Z,00000200,40000000,0001.15,0001.02,0000.60,-000.17,-000.06,-000.06,-000.05,0000.20,0000.21,18.4,25.1,04.2,02.8,0659.1,31.1
2021-05-30T23:05:00Z,00000200,00000000,0001.24,0001.09,0000.38,0000.24,0000.06,0000.54,0000.50,0000.08,0000.16,18.4,25.0,04.1,02.8,0659.2,31.1
2021-05-30T23:06:00Z,00000200,00000000,0001.69,0001.20,0000.55,0000.09,-000.20,-000.00,0000.28,0000.63,0000.55,18.4,25.0,04.2,02.8,0659.2,31.0
2021-05-30T23:07:00Z,00000200,00000000,0001.91,0001.12,0000.56,0000.25,-000.20,0000.14,0000.19,-000.01,-000.00,18.4,25.0,04.2,02.8,0659.2,31.0
2021-05-30T23:08:00Z,00000200,00000000,0001.31,0001.20,0001.14,-000.33,-000.05,-000.08,0000.58,0000.29,0000.22,18.4,25.0,04.2,02.8,0659.2,31.1
2021-05-30T23:09:00Z,00000200,00000000,0001.28,0001.38,0000.69,0000.05,-000.08,-000.14,-000.05,0000.48,0000.27,18.4,25.0,04.1,02.8,0659.2,31.1
2021-05-30T23:10:00Z,00000200,00000000,0001.39,0001.00,0000.64,0000.13,0000.20,0000.19,0000.03,-000.10,0000.43,18.4,24.9,04.2,02.8,0659.2,31.0
2021-05-30T23:11:00Z,00000200,00000000,0001.59,0001.06,0000.67,-000.00,-000.10,-000.08,0000.65,0000.54,-000.02,18.4,24.9,04.1,02.7,0659.2,31.0
2021-05-30T23:12:00Z,00000200,00000000,0001.50,0000.84,0000.57,-000.19,0000.12,0000.14,0000.51,0000.10,-000.00,18.4,24.9,04.1,02.7,0659.2,31.1
2021-05-30T23:13:00Z,00000200,00000000,0002.13,0001.13,0000.82,0000.39,0000.19,0000.00,0000.38,0000.40,0000.34,18.4,24.9,04.1,02.7,0659.2,31.0
2021-05-30T23:14:00Z,00000200,00000000,0001.76,0001.11,0000.75,-000.48,0000.06,0000.07,-000.04,-000.26,0000.09,18.4,24.9,03.9,02.6,0659.2,31.1
2021-05-30T23:15:00Z,00000200,00000000,0001.42,0001.03,0000.40,0000.09,-000.18,0000.09,-000.31,0000.65,0000.25,18.4,24.9,03.7,02.5,0659.2,31.0
2021-05-30T23:16:00Z,00000200,00000000,0001.83,0001.19,0000.92,0000.07,0000.14,-000.05,0000.74,0000.06,0000.43,18.4,24.9,03.5,02.4,0659.2,31.0
2021-05-30T23:17:00Z,00000200,00000000,0001.59,0001.12,0000.96,-000.14,0000.19,-000.01,0000.30,0000.14,0000.14,18.4,24.9,03.5,02.4,0659.2,31.0
2021-05-30T23:18:00Z,00000200,00000000,0001.33,0001.43,0000.63,0000.42,0000.25,0000.18,0000.20,0000.75,0000.48,18.4,24.9,03.4,02.3,0659.2,31.0
2021-05-30T23:19:00Z,00000200,00000000,0001.45,0001.14,0001.07,-000.10,0000.10,0000.53,0000.26,-000.02,-000.14,18.3,24.9,03.5,02.4,0659.2,31.1
2021-05-30T23:20:00Z,00000200,00000000,0001.77,0000.96,0000.53,-000.23,0000.06,0000.24,0000.38,0000.43,0000.40,18.3,24.9,03.5,02.4,0659.2,31.0
2021-05-30T23:21:00Z,00000200,00000000,0001.76,0001.13,0000.60,0000.08,0000.03,-000.00,0000.41,0000.86,0000.45,18.3,24.8,03.6,02.4,0659.3,31.0
2021-05-30T23:22:00Z,00000200,00000000,0001.22,0001.44,0000.57,0000.25,0000.10,0000.48,0000.25,0000.03,-000.08,18.3,24.8,03.7,02.5,0659.3,31.1
2021-05-30T23:23:00Z,00000200,00000000,0001.62,0001.05,0000.70,0000.51,0000.05,0000.27,0000.43,-000.19,0000.16,18.3,24.8,03.7,02.5,0659.3,31.0
2021-05-30T23:24:00Z,00000200,00000000,0001.41,0001.05,0000.71,0000.73,0000.02,0000.02,0000.28,0000.11,0000.19,18.3,24.8,03.4,02.3,0659.3,31.0
2021-05-30T23:25:00Z,00000200,00000000,0001.39,0001.27,0000.44,-000.11,0000.23,0000.08,0000.15,0000.07,0000.26,18.3,24.8,03.5,02.3,0659.2,31.0
2021-05-30T23:26:00Z,00000200,00000000,0001.37,0001.12,0000.69,0000.34,0000.07,0000.21,0000.31,0000.68,0000.34,18.3,24.8,03.4,02.3,0659.2,31.0
2021-05-30T23:27:00Z,00000200,00000000,0001.84,0001.09,0000.78,0000.25,-000.05,0000.31,0000.39,0000.18,0000.20,18.3,24.8,03.4,02.3,0659.2,31.0
2021-05-30T23:28:00Z,00000200,00000000,0002.28,0001.28,0000.66,0000.85,0000.14,0000.39,0000.44,0000.54,0000.08,18.3,24.8,03.3,02.2,0659.3,31.0
2021-05-30T23:29:00Z,00000200,00000000,0001.87,0001.02,0000.70,0000.22,-000.05,0000.24,0000.19,0000.12,0000.16,18.3,24.8,03.3,02.2,0659.3,31.0
2021-05-30T23:30:00Z,00000200,00000000,0001.11,0001.19,0000.33,-000.47,-000.03,-000.03,0000.34,0000.47,0000.42,18.3,24.8,03.3,02.2,0659.3,31.0
2021-05-30T23:31:00Z,00000200,00000000,0001.40,0000.93,0000.45,-000.12,-000.03,0000.06,0000.21,0000.32,0000.34,18.2,24.8,03.4,02.3,0659.3,31.0
2021-05-30T23:32:00Z,00000200,00000000,0001.47,0000.87,0000.42,0000.03,-000.33,0000.28,0000.57,0000.40,0000.11,18.3,24.8,03.5,02.4,0659.3,31.0
2021-05-30T23:33:00Z,00000200,00000000,0001.06,0000.71,0000.27,0000.12,-000.04,0000.22,0000.59,0000.48,0000.53,18.2,24.7,03.5,02.3,0659.3,31.0
2021-05-30T23:34:00Z,00000200,00000000,0000.96,0000.42,0000.48,0000.56,0000.08,0000.02,0000.53,0000.28,0000.39,18.2,24.8,03.6,02.4,0659.3,31.0
2021-05-30T23:35:00Z,00000200,00000000,0000.54,0000.66,0000.45,0000.72,-000.19,0000.21,-000.04,0000.21,0000.16,18.2,24.7,03.6,02.4,0659.3,31.0
2021-05-30T23:36:00Z,00000200,00000000,0000.89,0000.62,0000.22,0000.27,0000.08,0000.01,0000.15,0000.01,0000.05,18.2,24.7,03.8,02.5,0659.3,31.0
2021-05-30T23:37:00Z,00000200,00000000,0000.87,0000.63,0000.08,0000.07,0000.10,0000.22,0000.05,0000.01,0000.01,18.2,24.7,03.7,02.5,0659.3,31.0
2021-05-30T23:38:00Z,00000200,00000000,0001.16,0000.72,0000.34,0000.15,-000.14,0000.26,0000.62,0000.38,0000.10,18.2,24.7,03.5,02.3,0659.3,31.0
2021-05-30T23:39:00Z,00000200,00000000,0001.41,0000.54,0000.17,0000.29,0000.13,0000.29,0000.01,0000.16,0000.18,18.2,24.7,03.6,02.4,0659.3,31.0
2021-05-30T23:40:00Z,00000200,00000000,0000.70,0000.62,0000.28,0000.24,0000.11,0000.22,0000.15,0000.45,0000.52,18.2,24.7,03.6,02.4,0659.3,31.0
2021-05-30T23:41:00Z,00000200,00000000,0000.96,0000.90,0000.34,-000.22,-000.08,0000.01,0000.41,0000.08,-000.23,18.2,24.7,03.6,02.4,0659.3,31.0
2021-05-30T23:42:00Z,00000200,00000000,0000.95,0000.47,0000.27,0000.03,0000.03,0000.40,-000.33,-000.01,0000.26,18.2,24.7,03.6,02.4,0659.3,31.0
2021-05-30T23:43:00Z,00000200,00000000,0000.57,0000.29,0000.24,-000.22,-000.04,0000.10,0000.27,0000.17,-000.23,18.1,24.7,03.4,02.3,0659.3,31.0
2021-05-30T23:44:00Z,00000200,00000000,0001.16,0000.58,0000.39,0000.19,0000.26,0000.28,0000.10,0000.01,0000.35,18.2,24.7,03.3,02.2,0659.3,31.0
2021-05-30T23:45:00Z,00000200,00000000,0000.04,0000.06,0000.29,0000.22,-000.05,-000.00,0000.07,0000.07,-000.16,18.1,24.6,03.3,02.2,0659.3,31.0
2021-05-30T23:46:00Z,00000200,00000000,-000.11,0000.46,0000.16,-000.20,0000.13,0000.22,0000.16,0000.00,0000.00,18.1,24.7,03.3,02.2,0659.3,31.0
2021-05-30T23:47:00Z,00000200,00000000,0000.70,0000.63,0000.35,-000.07,0000.07,0000.07,-000.18,0000.09,0000.18,18.1,24.6,03.1,02.1,0659.3,31.0
2021-05-30T23:48:00Z,00000200,00000000,0000.66,0000.30,0000.45,-000.10,-000.02,-000.13,0000.16,-000.07,-000.07,18.1,24.6,03.1,02.1,0659.3,31.0
2021-05-30T23:49:00Z,00000200,00000000,0001.24,0000.88,0000.02,0000.28,0000.22,0000.02,0000.00,-000.05,-000.05,18.1,24.6,03.0,02.0,0659.3,31.0
2021-05-30T23:50:00Z,00000200,00000000,0001.29,0000.48,0000.16,-000.19,-000.10,0000.25,0000.05,0000.10,-000.16,18.1,24.6,02.9,01.9,0659.3,31.0
2021-05-30T23:51:00Z,00000200,00000000,0000.55,0000.62,0000.27,0000.07,-000.14,0000.32,0000.31,0000.33,0000.49,18.1,24.6,02.9,01.9,0659.3,31.0
2021-05-30T23:52:00Z,00000200,00000000,0000.54,0000.58,0000.37,0000.36,0000.10,0000.08,-000.04,-000.10,-000.07,18.1,24.6,02.8,01.9,0659.3,31.0
2021-05-30T23:53:00Z,00000200,00000000,0000.89,0000.64,0000.31,0000.34,0000.03,0000.13,-000.05,0000.05,0000.09,18.1,24.6,02.6,01.8,0659.3,31.0
2021-05-30T23:54:00Z,00000200,00000000,0000.56,0000.21,0000.29,-000.28,-000.07,-000.12,0000.46,0000.16,-000.03,18.0,24.6,02.5,01.6,0659.2,31.0
2021-05-30T23:55:00Z,00000200,00000000,0000.63,0000.05,-000.06,-000.19,-000.04,0000.04,0000.20,0000.56,0000.10,18.1,24.6,02.7,01.8,0659.2,31.0
2021-05-30T23:56:00Z,00000200,00000000,0000.19,0000.24,-000.06,-000.22,-000.01,0000.05,-000.19,-000.49,0000.25,18.0,24.6,02.5,01.7,0659.2,31.0
2021-05-30T23:57:00Z,00000200,40000000,,,,,,,0000.92,0000.85,0000.28,18.1,24.6,02.5,01.7,0659.2,31.0
2021-05-30T23:58:00Z,00000200,60000000,,,,,,,-000.97,-000.52,-000.11,17.7,24.7,02.7,01.8,0658.2,31.0
2021-05-30T23:59:00Z,00000200,20000000,,,,,,,-000.22,-000.61,-000.66,17.7,24.8,02.4,01.6,0658.2,31.0
